Regional Weather Roundup
Issued by NWS Wakefield, VA

Home | Current Version | Previous Version | Text Only | Print | Product List | Glossary Off
Versions: 1 2 3 4 5 6 7 8 9 10 11 12 13 14 15 16 17 18 19 20 21 22 23 24 25 26 27 28

000
ASUS41 KAKQ 280015
RWRAKQ

REGIONAL WEATHER ROUNDUP
NATIONAL WEATHER SERVICE WAKEFIELD VA
800 PM EDT SAT MAY 27 2017

Note: "fair" indicates few or no clouds below 12,000 feet with no
significant weather and/or obstructions to visibility. * = Denotes
station may not report precipitation (e.g., rain,snow,etc.),
thunder or fog.

VAZ042-051-052>054-056-280100-
NORTHERN VIRGINIA

CITY           SKY/WX    TMP DP  RH WIND       PRES   REMARKS
WASH NATIONAL  MOCLDY    69  61  75 E3        29.89R
DULLES         CLOUDY    69  61  75 E6        29.89R
FORT BELVOIR   PTCLDY    70  59  67 CALM      29.88S
QUANTICO       PTCLDY    71  62  73 NE7       29.88R
FREDERICKSBRG* CLOUDY    73  66  78 NE3       29.86S
STAFFORD*      CLOUDY    70  63  79 E5        29.91R
WARRENTON      CLEAR     71  60  67 E6        29.87S
CULPEPER*      PTCLDY    71  64  80 NE6       29.87F
MANASSAS*      NOT AVBL
LEESBURG*      CLOUDY    68  64  88 NE3       29.90S
WINCHESTER     MOCLDY    63  61  94 N3        29.90R
FRONT ROYAL*   MOCLDY    68  63  83 CALM      29.88S
LURAY*         CLEAR     70  64  83 N8        29.87R
$$

VAZ048-049-060>072-079>083-280100-
CENTRAL AND SOUTH CENTRAL VIRGINIA

CITY           SKY/WX    TMP DP  RH WIND       PRES   REMARKS
RICHMOND       TSTM      66  61  84 SE32G51   29.85R
CHESTERFIELD*  NOT AVBL
PETERSBURG*    RAIN      70  65  84 SE3       29.84F
HANOVER        CLOUDY    69  65  86 E6        29.86F
TAPPAHANNOCK*  CLOUDY    74  61  63 NE5       29.86S
QUINTON*       CLOUDY    70  70 100 SW6       29.83F FOG
CHARLOTTSVILLE PTCLDY    71  68  90 CALM      29.85S
GORDONSVILLE*  PTCLDY    70  69  96 CALM      29.85S
ORANGE*        PTCLDY    70  64  83 CALM      29.86F
LOUISA*        CLOUDY    73  68  83 E6        29.84F
BUMPASS*       FAIR      68  68 100 CALM      29.85F
FARMVILLE*     PTCLDY    77  66  70 S7        29.80F THUNDER
CREWE*         FAIR      71  67  87 SE3       29.83F
FORT PICKETT*  FAIR      67  64  87 S5        29.84F
CHASE CITY*    FAIR      77  69  77 CALM      29.84S
CLARKSVILLE*   FAIR      73  73 100 SW3       29.84S
SOUTH HILL*    PTCLDY    77  70  78 S3        29.89S
LAWRENCEVILLE* MOCLDY    76  62  62 NE5       29.84F
EMPORIA*       CLOUDY    73  55  53 N13G18    29.87R THUNDER
$$

VAZ088>098-280100-
SOUTHEAST VIRGINIA

CITY           SKY/WX    TMP DP  RH WIND       PRES   REMARKS
NORFOLK        CLOUDY    77  66  68 E5        29.85R
VIRGINIA BEACH CLOUDY    70  64  81 NE6       29.85R
NORFOLK NAVAL  TSTM      75  66  73 E6        29.87R
WEST POINT*    CLOUDY    72  62  70 SE8       29.82F
SALUDA*        FAIR      72  66  82 E7        29.84F
NEWPORT NEWS   LGT RAIN  72  67  84 E8        29.84R
LANGLEY AFB    MOCLDY    73  67  81 VRB5      29.83F THUNDER
FORT EUSTIS    TSTM      75  68  78 NE3       29.82S
WILLIAMSBURG*  CLOUDY    73  70  88 CALM      29.87R
HR EXEC AP*    FAIR      73  66  78 CALM      29.83R
FRANKLIN*      CLOUDY    79  67  67 S7        29.83F
US460-WAKEFLD  LGT RAIN  78  72  81 W3        29.84R
$$

VAZ020-022-025-037-045-280100-
WEST CENTRAL AND SOUTHWEST VIRGINIA

CITY           SKY/WX    TMP DP  RH WIND       PRES   REMARKS
STAUNTON*      PTCLDY    72  67  82 NE6       29.89S
WAYNESBORO*    CLOUDY    72  67  85 SE6       29.87F
HOT SPRINGS VA CLOUDY    68  52  56 W10       29.99F
LYNCHBURG      CLOUDY    77  66  68 S3        29.87F
DANVILLE       CLOUDY    77  70  79 W3        29.86S
SOUTH BOSTON*  FAIR      76  68  76 CALM      29.85S
MARTINSVILLE   CLOUDY    74  69  83 CALM      29.91R
ROANOKE        CLOUDY    79  64  60 W6        29.90R
BLACKSBURG     CLOUDY    74  65  74 CALM      29.98R
DUBLIN*        CLOUDY    75  60  60 SW5       29.96R
MARION*        TSTM      66  63  88 CALM      30.02S
HILLSVILLE*    LGT RAIN  72  58  61 CALM      29.99R
RICHLANDS*     TSTM      64  63  99 CALM      30.03R
WISE*          TSTM      63  63 100 CALM      30.01F
ABINGDON*      RAIN      75  68  79 NW9       29.99R
$$

MDZ021>025-VAZ099-100-280100-
SOUTHERN MARYLAND AND THE DELMARVA PENINSULA

CITY           SKY/WX    TMP DP  RH WIND       PRES   REMARKS
PATUXENT RIVER CLOUDY    71  66  84 NE3       29.87S
BAY BRIDGE APT CLOUDY    66  63  88 E6        29.88F
LEONARDTOWN    CLOUDY    68  61  77 CALM      29.89S
DOVER          CLOUDY    63  63 100 E3        29.89R
GEORGETOWN     CLOUDY    67  56  67 SE5       29.90S
EASTON         LGT RAIN  68  61  77 NE3       29.93R
CAMBRIDGE      CLOUDY    70  63  78 NE5       29.88S
SALISBURY      CLOUDY    68  58  70 SE8       29.89R
OCEAN CITY     CLOUDY    64  59  83 SE8       29.91R
WALLOPS ISLAND CLOUDY    66  58  75 SE8       29.90R
ACCOMACK*      MOCLDY    67  26  21 E6        29.88S
$$

NCZ012>017-030>032-280100-
NORTH CENTRAL AND EASTERN NORTH CAROLINA

CITY           SKY/WX    TMP DP  RH WIND       PRES   REMARKS
ROANOKE RAPIDS MOCLDY    77  68  73 CALM      29.84S
RALEIGH        PTCLDY    80  66  62 SW6       29.87R
ELIZABETH CITY CLOUDY    80  69  69 S3        29.85R
AHOSKIE*       NOT AVBL
EDENTON*       CLOUDY    83  67  58 CALM      29.87R
CURRITUCK*     CLOUDY    81  67  62 CALM      29.86R
KILL DEVIL HLS CLOUDY    79  67  66 CALM      29.86R
MANTEO         CLOUDY    78  71  78 SW9       29.87R
CAPE HATTERAS  CLEAR     77  70  79 SW10G17   29.89S
TARBORO*       NOT AVBL
GOLDSBORO      CLEAR     84  66  54 S5        29.84S
WASHINGTON     CLOUDY    82  65  56 SW3       29.85S
GREENVILLE     CLOUDY    82  64  54 CALM      29.88R
NEW BERN       CLEAR     80  71  74 S7        29.88R
WILMINGTON     PTCLDY    79  68  69 SW10      29.89S
$$

VAZ048-280100-
ELSEWHERE

CITY           SKY/WX    TMP DP  RH WIND       PRES   REMARKS
HARRISBURG PA  MOCLDY    68  60  75 SW5       29.89R
BALTIMORE      CLOUDY    66  62  87 E3        29.89R
ANNAPOLIS      CLOUDY    67  64  90 CALM      29.89S
ANDREWS AFB    MOCLDY    66  60  80 NE3       29.88S
PHILADELPHIA   PTCLDY    68  58  70 S5        29.89S
HENDERSON NC   CLEAR     72  70  95 SW3       29.86S
GREENSBORO     MOCLDY    79  66  64 W7        29.88S
ROCKY MOUNT    CLEAR     79  69  71 S3        29.86R
$$

VAZ100-280100-
MARINE

STATION/POSITION TIME  TEMP    WIND        PRES    WAVE   SWELL
                       AIR SEA DIR/SP/G            HT/PER HT/PER
                 (UTC) (F)     (DEG/KT/KT) (MB)    (FT/S) (FT/S)
CAPE MAY NJ      2348   63 64  100/  2/  3 1012.4R
LEWES DE         2348   63 65  110/  6/  7 1012.5R
15NM E FENWICK I 2350   63 61  100/ 10/ 10 1012.7S   2/ 7   2/ 7
WACHAPREAGUE VA  2348   67 74   70/  8/ 10 1011.6R
THOMAS POINT MD  0000   66 65   60/  4/  5   N/A
GOOSES REEF MD   2350   68      60/  8/ 10 1012.6R
COVE POINT MD    2348   69      60/  7/  8 1012.3R
SOLOMONS ISLAND  2348   70 68   30/  4/  5   N/A
BISHOPS HEAD MD  2348   71 73   60/  4/  5 1012.2R
PINEY POINT MD   2342          120/  8/  8   N/A
POTOMAC MD       2350   69     130/ 10/ 14 1010.5R
CAMBRIDGE MD     2336   70 71                N/A
LEWISETTA VA     2348   70 71  120/ 14/ 16 1011.3R
RAPPAHANNOCK LGT 2342           90/ 11/ 12 1012.1R
STINGRAY PT      2350   71     140/ 12/ 14 1011.1R
YORK RVR RNG VA  2348   71      90/ 11/ 13 1010.3R
YORKTOWN VA      2348   72 71   60/ 11/ 13 1010.5R
JAMESTOWN VA     2350   76      40/  2       N/A
DOMINION TERM VA 2348   72      30/  2/  5 1010.9R
KIPTOPEKE VA     2348      70   90/  9/ 11   N/A
CHES BAY BRIDGE  2348   70 68  110/  9/ 11 1010.9R
CAPE HENRY VA    2348   69      90/  7/  9   N/A
WILLOUBY STN VA  2348   70      90/ 10/ 12 1010.6R
S CRANEY ISL VA  2348   80      40/  4/  6 1010.6R
CAPE HENRY BUOY  2342      66                N/A     2/ 7
1ST LANDING BUOY 2350   69                 1011.2R
CAPE CHARLES BUO 2351      67                N/A     2/ 8
64NM E OF VA BCH 2350   69 67  200/  6/  8 1012.1R   3/ 8   2/ 8
DUCK PIER NC     2348   80 64  170/  4/  5 1010.6R
44100 DUCK FRF   2335      68                N/A     2/ 7
44056 DUCK FRF   2330      65                N/A     2/ 8
OREGON INLET NC  2342   76 76  200/ 16/ 20 1011.2S
HATTERAS NC      2348   76 74  210/ 10/ 14 1011.8F
DIAMOND SHLS NC  2350   78 77  220/ 19/ 21 1011.7F   3/ 8   2/ 8
CAPE LOOKOUT NC  0000   76     220/ 10/ 14 1012.1R
$$




USA.gov is the U.S. government's official web portal to all federal, state and local government web resources and services.